Location: Rio Negrinho
(26.2394°S, 49.4999°W)
Time: 08:25:02
(UTC+00:00)

H-2A R/B - Pass Details

Date: 01 October 2020
Orbit: 500 x 542 km, 97.3° (Epoch: 17 June)

Event Time Altitude Azimuth Distance (km) Brightness Sun altitude
Rises 21:55:58 0° 197° (SSW) 2,725 6.7 -9.2°
Reaches altitude 10° 21:59:21 10° 228° (SW) 1,817 6.4 -10.0°
Maximum altitude 22:00:49 12° 251° (WSW) 1,691 6.8 -10.3°
Drops below altitude 10° 22:02:18 10° 273° (W) 1,802 6.9 -10.6°
Sets 22:05:38 0° 305° (NW) 2,674 7.1 -11.4°
